WMT2400 LATI-LIBP

Flight info

Callsign WMT2400
Flight time 0h 53m
Altitude 36000
Route DIRES DCT PAPIZ DCT ENOXA DCT BANAV DCT GARGA DCT RIVAM/N0359F180 M169 ERPOG
Aircraft A321/M-SDE1E2E3FGIJ1J4RWXY/LB1

Departure

Time 2026-04-21 12:14
Airport Tirana International Airport Mother Teresa (LATI)

Arrival

Time 2026-04-21 13:07
Airport Abruzzo Airport (LIBP)
Time Latitude Longitude Altitude Speed Heading
2026-04-21 11:43 41.42377 19.71461 118 ft 0 kts 264°
2026-04-21 12:07 41.42378 19.71467 116 ft 3 kts 266°
2026-04-21 12:07 41.42376 19.71501 117 ft 4 kts 297°
2026-04-21 12:07 41.42359 19.71524 115 ft 4 kts 346°
2026-04-21 12:07 41.42352 19.71526 115 ft 0 kts 354°
2026-04-21 12:10 41.42354 19.71526 115 ft 2 kts 354°
2026-04-21 12:11 41.42400 19.71519 117 ft 10 kts 354°
2026-04-21 12:11 41.42478 19.71509 116 ft 12 kts 354°
2026-04-21 12:11 41.42568 19.71496 116 ft 14 kts 354°
2026-04-21 12:11 41.42643 19.71487 118 ft 10 kts 359°
2026-04-21 12:12 41.42665 19.71556 117 ft 9 kts 85°
2026-04-21 12:12 41.42672 19.71650 118 ft 11 kts 84°
2026-04-21 12:12 41.42680 19.71757 118 ft 12 kts 84°
2026-04-21 12:12 41.42687 19.71873 118 ft 12 kts 101°
2026-04-21 12:13 41.42620 19.71904 115 ft 11 kts 174°
2026-04-21 12:13 41.42487 19.71921 116 ft 45 kts 174°
2026-04-21 12:13 41.41866 19.72004 122 ft 130 kts 174°
2026-04-21 12:13 41.40809 19.72151 606 ft 157 kts 175°
2026-04-21 12:14 41.39740 19.72287 1651 ft 152 kts 177°
2026-04-21 12:14 41.38651 19.72428 2030 ft 166 kts 177°
2026-04-21 12:14 41.37419 19.72588 2269 ft 189 kts 177°
2026-04-21 12:14 41.36032 19.72769 2467 ft 212 kts 178°
2026-04-21 12:15 41.34474 19.72970 2712 ft 238 kts 177°
2026-04-21 12:15 41.32776 19.73190 3345 ft 250 kts 176°
2026-04-21 12:15 41.31026 19.73422 4134 ft 254 kts 175°
2026-04-21 12:15 41.29237 19.73663 4874 ft 261 kts 177°
2026-04-21 12:16 41.27413 19.73910 5597 ft 266 kts 178°
2026-04-21 12:16 41.25566 19.73884 6332 ft 267 kts 197°
2026-04-21 12:16 41.24009 19.72622 6987 ft 265 kts 232°
2026-04-21 12:16 41.23056 19.70543 7775 ft 264 kts 248°
2026-04-21 12:17 41.22393 19.68264 8552 ft 266 kts 253°
2026-04-21 12:17 41.21792 19.65933 9403 ft 267 kts 253°
2026-04-21 12:17 41.21162 19.63598 10210 ft 271 kts 252°
2026-04-21 12:17 41.20450 19.61170 10562 ft 294 kts 251°
2026-04-21 12:18 41.19630 19.58574 10959 ft 313 kts 248°
2026-04-21 12:18 41.18737 19.55904 11766 ft 320 kts 248°
2026-04-21 12:18 41.17802 19.53203 12501 ft 324 kts 248°
2026-04-21 12:18 41.16842 19.50481 13229 ft 327 kts 247°
2026-04-21 12:19 41.15867 19.47736 13904 ft 330 kts 247°
2026-04-21 12:19 41.14881 19.44968 14549 ft 333 kts 247°
2026-04-21 12:19 41.13888 19.42178 15190 ft 336 kts 248°
2026-04-21 12:19 41.12891 19.39362 15849 ft 339 kts 248°
2026-04-21 12:20 41.11887 19.36526 16511 ft 341 kts 248°
2026-04-21 12:20 41.10876 19.33667 17158 ft 344 kts 248°
2026-04-21 12:20 41.09858 19.30782 17794 ft 347 kts 248°
2026-04-21 12:20 41.08979 19.27811 18399 ft 346 kts 259°
2026-04-21 12:21 41.08808 19.24648 18928 ft 346 kts 277°
2026-04-21 12:21 41.09444 19.21582 19465 ft 348 kts 294°
2026-04-21 12:21 41.10505 19.18684 20032 ft 350 kts 295°
2026-04-21 12:21 41.11586 19.15778 20619 ft 352 kts 295°
2026-04-21 12:22 41.12674 19.12856 21206 ft 354 kts 295°
2026-04-21 12:22 41.13766 19.09914 21777 ft 357 kts 295°
2026-04-21 12:22 41.14862 19.06950 22338 ft 359 kts 295°
2026-04-21 12:22 41.15962 19.03963 22893 ft 361 kts 295°
2026-04-21 12:23 41.17066 19.00950 23418 ft 364 kts 295°
2026-04-21 12:23 41.18178 18.97924 23867 ft 366 kts 295°
2026-04-21 12:23 41.19295 18.94882 24302 ft 368 kts 295°
2026-04-21 12:23 41.20418 18.91820 24729 ft 370 kts 295°
2026-04-21 12:24 41.21544 18.88740 25158 ft 372 kts 295°
2026-04-21 12:24 41.22671 18.85645 25592 ft 373 kts 295°
2026-04-21 12:24 41.23805 18.82530 26005 ft 375 kts 295°
2026-04-21 12:24 41.24947 18.79401 26418 ft 377 kts 295°
2026-04-21 12:25 41.26095 18.76256 26815 ft 379 kts 295°
2026-04-21 12:25 41.27247 18.73095 27230 ft 381 kts 295°
2026-04-21 12:25 41.28405 18.69919 27634 ft 383 kts 295°
2026-04-21 12:25 41.29567 18.66724 28041 ft 385 kts 295°
2026-04-21 12:26 41.30732 18.63511 28433 ft 387 kts 295°
2026-04-21 12:26 41.31903 18.60282 28811 ft 389 kts 295°
2026-04-21 12:26 41.33063 18.57081 29176 ft 391 kts 295°
2026-04-21 12:26 41.34246 18.53810 29534 ft 392 kts 295°
2026-04-21 12:27 41.35429 18.50527 29898 ft 394 kts 295°
2026-04-21 12:27 41.36614 18.47233 30213 ft 396 kts 295°
2026-04-21 12:27 41.37807 18.43913 30512 ft 399 kts 295°
2026-04-21 12:27 41.39009 18.40575 30806 ft 401 kts 295°
2026-04-21 12:28 41.40219 18.37215 31108 ft 403 kts 295°
2026-04-21 12:28 41.41430 18.33852 31487 ft 402 kts 295°
2026-04-21 12:28 41.42637 18.30493 31885 ft 402 kts 295°
2026-04-21 12:28 41.43841 18.27137 32277 ft 401 kts 295°
2026-04-21 12:29 41.45041 18.23781 32662 ft 401 kts 295°
2026-04-21 12:29 41.46238 18.20425 33034 ft 401 kts 295°
2026-04-21 12:29 41.47435 18.17070 33416 ft 401 kts 295°
2026-04-21 12:29 41.48634 18.13711 33775 ft 400 kts 295°
2026-04-21 12:30 41.49826 18.10357 34113 ft 400 kts 295°
2026-04-21 12:30 41.51014 18.07012 34431 ft 400 kts 295°
2026-04-21 12:30 41.52201 18.03662 34746 ft 399 kts 295°
2026-04-21 12:30 41.53389 18.00308 35055 ft 399 kts 294°
2026-04-21 12:31 41.54570 17.96961 35365 ft 398 kts 294°
2026-04-21 12:31 41.55751 17.93621 35671 ft 398 kts 294°
2026-04-21 12:31 41.56932 17.90278 35898 ft 399 kts 294°
2026-04-21 12:32 41.59289 17.83628 35953 ft 394 kts 294°
2026-04-21 12:32 41.61619 17.77011 35950 ft 393 kts 294°
2026-04-21 12:33 41.63929 17.70436 35967 ft 393 kts 294°
2026-04-21 12:33 41.66241 17.63815 35953 ft 393 kts 294°
2026-04-21 12:34 41.68551 17.57193 35954 ft 393 kts 294°
2026-04-21 12:34 41.70868 17.50573 35956 ft 393 kts 294°
2026-04-21 12:35 41.73184 17.43940 35960 ft 393 kts 294°
2026-04-21 12:35 41.75483 17.37304 35965 ft 393 kts 294°
2026-04-21 12:36 41.77781 17.30650 35971 ft 393 kts 294°
2026-04-21 12:36 41.80073 17.23999 35971 ft 393 kts 294°
2026-04-21 12:37 41.82366 17.17356 35974 ft 393 kts 294°
2026-04-21 12:37 41.84652 17.10705 35977 ft 393 kts 294°
2026-04-21 12:38 41.86934 17.04051 35975 ft 392 kts 294°
2026-04-21 12:38 41.89201 16.97446 35976 ft 392 kts 294°
2026-04-21 12:39 41.91482 16.90763 35983 ft 391 kts 294°
2026-04-21 12:39 41.93737 16.84116 35980 ft 391 kts 294°
2026-04-21 12:40 41.95996 16.77468 35824 ft 391 kts 294°
2026-04-21 12:40 41.97122 16.74154 35569 ft 389 kts 294°
2026-04-21 12:40 41.98229 16.70891 35318 ft 389 kts 294°
2026-04-21 12:40 41.99346 16.67589 35077 ft 387 kts 294°
2026-04-21 12:41 42.00460 16.64297 34831 ft 386 kts 294°
2026-04-21 12:41 42.01570 16.61017 34617 ft 385 kts 294°
2026-04-21 12:41 42.02673 16.57748 34377 ft 383 kts 294°
2026-04-21 12:41 42.03768 16.54494 34139 ft 381 kts 294°
2026-04-21 12:42 42.04856 16.51258 33891 ft 378 kts 294°
2026-04-21 12:42 42.05929 16.48059 33556 ft 372 kts 294°
2026-04-21 12:42 42.06983 16.44905 33154 ft 367 kts 294°
2026-04-21 12:42 42.08025 16.41789 32734 ft 362 kts 294°
2026-04-21 12:43 42.09052 16.38723 32334 ft 357 kts 294°
2026-04-21 12:43 42.10062 16.35700 31933 ft 352 kts 294°
2026-04-21 12:43 42.11058 16.32718 31533 ft 347 kts 294°
2026-04-21 12:43 42.12040 16.29777 31150 ft 342 kts 294°
2026-04-21 12:44 42.13010 16.26874 30763 ft 338 kts 294°
2026-04-21 12:44 42.13966 16.24003 30380 ft 334 kts 294°
2026-04-21 12:44 42.14912 16.21161 29991 ft 330 kts 294°
2026-04-21 12:44 42.15845 16.18352 29592 ft 327 kts 294°
2026-04-21 12:45 42.16765 16.15578 29240 ft 322 kts 293°
2026-04-21 12:45 42.17672 16.12837 28885 ft 318 kts 293°
2026-04-21 12:45 42.18569 16.10129 28538 ft 314 kts 293°
2026-04-21 12:45 42.19454 16.07449 28198 ft 312 kts 293°
2026-04-21 12:46 42.20336 16.04781 27858 ft 311 kts 293°
2026-04-21 12:46 42.20918 16.03023 27636 ft 310 kts 293°
2026-04-21 12:46 42.22079 15.99515 27186 ft 308 kts 293°
2026-04-21 12:46 42.22950 15.96880 26875 ft 307 kts 293°
2026-04-21 12:47 42.23817 15.94255 26557 ft 306 kts 293°
2026-04-21 12:47 42.24678 15.91639 26240 ft 305 kts 293°
2026-04-21 12:47 42.25536 15.89033 25921 ft 303 kts 293°
2026-04-21 12:47 42.26389 15.86436 25606 ft 302 kts 293°
2026-04-21 12:48 42.26963 15.84686 25393 ft 301 kts 293°
2026-04-21 12:48 42.27807 15.82104 25073 ft 300 kts 293°
2026-04-21 12:48 42.28646 15.79531 24752 ft 299 kts 293°
2026-04-21 12:48 42.29480 15.76966 24433 ft 298 kts 293°
2026-04-21 12:49 42.30315 15.74413 24118 ft 297 kts 293°
2026-04-21 12:49 42.31147 15.71869 23781 ft 296 kts 293°
2026-04-21 12:49 42.31967 15.69365 23460 ft 294 kts 293°
2026-04-21 12:49 42.32793 15.66840 23091 ft 293 kts 293°
2026-04-21 12:50 42.33614 15.64321 22749 ft 292 kts 293°
2026-04-21 12:50 42.34431 15.61808 22415 ft 292 kts 293°
2026-04-21 12:50 42.35243 15.59298 22081 ft 291 kts 293°
2026-04-21 12:50 42.36053 15.56797 21739 ft 290 kts 293°
2026-04-21 12:51 42.36860 15.54305 21410 ft 289 kts 293°
2026-04-21 12:51 42.37664 15.51829 21071 ft 287 kts 293°
2026-04-21 12:51 42.38466 15.49363 20720 ft 286 kts 293°
2026-04-21 12:51 42.39261 15.46906 20379 ft 285 kts 293°
2026-04-21 12:52 42.40053 15.44457 20033 ft 284 kts 293°
2026-04-21 12:52 42.40841 15.42018 19693 ft 282 kts 293°
2026-04-21 12:52 42.41626 15.39587 19355 ft 281 kts 293°
2026-04-21 12:52 42.42407 15.37166 19016 ft 280 kts 293°
2026-04-21 12:53 42.43183 15.34753 18685 ft 279 kts 293°
2026-04-21 12:53 42.43955 15.32349 18346 ft 278 kts 293°
2026-04-21 12:53 42.44724 15.29952 17977 ft 277 kts 292°
2026-04-21 12:53 42.45488 15.27566 17625 ft 276 kts 293°
2026-04-21 12:54 42.46250 15.25190 17295 ft 275 kts 293°
2026-04-21 12:54 42.47012 15.22816 17088 ft 278 kts 293°
2026-04-21 12:54 42.47772 15.20384 17016 ft 282 kts 289°
2026-04-21 12:54 42.48286 15.17807 16595 ft 286 kts 284°
2026-04-21 12:55 42.48750 15.15192 16124 ft 286 kts 284°
2026-04-21 12:55 42.49209 15.12575 15693 ft 285 kts 284°
2026-04-21 12:55 42.49664 15.09968 15251 ft 285 kts 283°
2026-04-21 12:55 42.50115 15.07374 14861 ft 282 kts 283°
2026-04-21 12:56 42.50565 15.04783 14486 ft 281 kts 283°
2026-04-21 12:56 42.51016 15.02199 14015 ft 282 kts 283°
2026-04-21 12:56 42.51463 14.99645 13503 ft 277 kts 283°
2026-04-21 12:56 42.51904 14.97130 13017 ft 272 kts 283°
2026-04-21 12:57 42.52333 14.94666 12583 ft 270 kts 283°
2026-04-21 12:57 42.52772 14.92147 12157 ft 271 kts 283°
2026-04-21 12:57 42.53198 14.89706 11739 ft 270 kts 283°
2026-04-21 12:57 42.53629 14.87232 11320 ft 270 kts 283°
2026-04-21 12:58 42.54059 14.84755 10901 ft 269 kts 283°
2026-04-21 12:58 42.54490 14.82276 10483 ft 271 kts 283°
2026-04-21 12:58 42.54924 14.79788 10061 ft 271 kts 283°
2026-04-21 12:58 42.55359 14.77295 9634 ft 271 kts 283°
2026-04-21 12:59 42.55787 14.74833 9194 ft 265 kts 283°
2026-04-21 12:59 42.56206 14.72408 8770 ft 264 kts 283°
2026-04-21 12:59 42.56623 14.69988 8352 ft 263 kts 282°
2026-04-21 12:59 42.57036 14.67577 7951 ft 263 kts 282°
2026-04-21 13:00 42.57448 14.65154 7530 ft 263 kts 282°
2026-04-21 13:00 42.57863 14.62732 7129 ft 264 kts 282°
2026-04-21 13:00 42.58281 14.60302 6722 ft 265 kts 282°
2026-04-21 13:00 42.58697 14.57871 6382 ft 264 kts 282°
2026-04-21 13:01 42.59113 14.55436 5968 ft 263 kts 282°
2026-04-21 13:01 42.59521 14.53044 5521 ft 260 kts 282°
2026-04-21 13:01 42.59929 14.50653 5127 ft 257 kts 282°
2026-04-21 13:01 42.60316 14.48380 5052 ft 237 kts 282°
2026-04-21 13:02 42.60676 14.46270 4983 ft 226 kts 282°
2026-04-21 13:02 42.61025 14.44207 4893 ft 224 kts 282°
2026-04-21 13:02 42.61564 14.40041 4546 ft 223 kts 265°
2026-04-21 13:03 42.61213 14.38000 4337 ft 223 kts 245°
2026-04-21 13:03 42.60353 14.36264 4083 ft 223 kts 225°
2026-04-21 13:03 42.59141 14.34935 3808 ft 225 kts 218°
2026-04-21 13:03 42.57897 14.33641 3499 ft 226 kts 218°
2026-04-21 13:04 42.56658 14.32350 3224 ft 222 kts 218°
2026-04-21 13:04 42.55442 14.31084 2904 ft 218 kts 218°
2026-04-21 13:04 42.54245 14.29838 2605 ft 217 kts 218°
2026-04-21 13:04 42.53043 14.28588 2339 ft 217 kts 217°
2026-04-21 13:05 42.51865 14.27363 2042 ft 209 kts 216°
2026-04-21 13:05 42.50749 14.26203 1745 ft 195 kts 217°
2026-04-21 13:05 42.49725 14.25139 1507 ft 176 kts 216°
2026-04-21 13:05 42.48799 14.24178 1271 ft 160 kts 217°
2026-04-21 13:06 42.47929 14.23275 1054 ft 156 kts 216°
2026-04-21 13:06 42.47076 14.22391 857 ft 153 kts 217°
2026-04-21 13:06 42.46230 14.21513 659 ft 152 kts 215°
2026-04-21 13:06 42.45391 14.20642 463 ft 152 kts 216°
2026-04-21 13:07 42.44545 14.19766 248 ft 154 kts 215°
2026-04-21 13:07 42.43702 14.18885 68 ft 152 kts 214°
2026-04-21 13:07 42.42973 14.18138 43 ft 97 kts 218°
2026-04-21 13:07 42.42638 14.17790 49 ft 44 kts 218°
2026-04-21 13:08 42.42413 14.17558 47 ft 38 kts 217°
2026-04-21 13:08 42.42284 14.17489 46 ft 14 kts 141°
2026-04-21 13:08 42.42271 14.17605 48 ft 13 kts 85°
2026-04-21 13:08 42.42294 14.17722 46 ft 14 kts 46°
2026-04-21 13:09 42.42374 14.17807 48 ft 15 kts 37°
2026-04-21 13:09 42.42463 14.17899 48 ft 17 kts 37°
2026-04-21 13:09 42.42559 14.17998 46 ft 18 kts 37°
2026-04-21 13:09 42.42665 14.18108 47 ft 20 kts 37°
2026-04-21 13:10 42.42774 14.18220 48 ft 20 kts 37°
2026-04-21 13:10 42.42887 14.18337 47 ft 21 kts 37°
2026-04-21 13:10 42.42982 14.18435 47 ft 14 kts 37°
2026-04-21 13:10 42.43019 14.18549 48 ft 11 kts 81°
2026-04-21 13:11 42.43043 14.18638 47 ft 10 kts 41°
2026-04-21 13:11 42.43104 14.18702 48 ft 10 kts 37°
2026-04-21 13:11 42.43121 14.18741 48 ft 3 kts 116°
2026-04-21 13:11 42.43103 14.18770 48 ft 4 kts 128°
2026-04-21 13:12 42.43094 14.18786 48 ft 0 kts 128°
2026-04-21 13:12 42.43093 14.18787 48 ft 0 kts 128°